When you browse on this site, cookies collect data to enhance your experience and personalize the content and advertising you see.
Visit our Privacy Policy to learn more. By continuing to use the site, you agree to this use of cookies and data.
  • In Schweiz
  • Länderverzeichnis
  • Für 7 Tage
  • Wassertemperatur
  • Wetterkarte
  • Widgets
  • user-avatar
    Anmelden

    Stündliche Wetter Bregenz

    Heute, 21 Februar, Freitag

    Zeit Temperatur Niederschläge Wind Luftdruck Luftfeuchtigkeit
    00:00 -1°C° 0.1 mm 3 m/S 647 mmHg 74%
    01:00 -1°C° 0 mm 3 m/S 647 mmHg 75%
    02:00 -1°C° 0.9 mm 3 m/S 648 mmHg 81%
    03:00 -1°C° 0.9 mm 3 m/S 648 mmHg 87%
    04:00 -1°C° 0.9 mm 3 m/S 649 mmHg 93%
    05:00 -2°C° 0.4 mm 2 m/S 649 mmHg 93%
    06:00 -2°C° 0.4 mm 2 m/S 650 mmHg 92%
    07:00 -3°C° 0 mm 2 m/S 650 mmHg 93%
    14:00 +3°C° 0 mm 1 m/S 652 mmHg 67%
    15:00 +2°C° 0 mm 1 m/S 652 mmHg 66%
    16:00 +3°C° 0 mm 1 m/S 651 mmHg 67%
    17:00 +1°C° 0 mm 1 m/S 652 mmHg 71%
    18:00 0°C° 0 mm 1 m/S 652 mmHg 76%
    19:00 -1°C° 0 mm 1 m/S 652 mmHg 80%
    20:00 -1°C° 0 mm 1 m/S 652 mmHg 78%
    21:00 -1°C° 0 mm 1 m/S 651 mmHg 77%
    22:00 -1°C° 0 mm 1 m/S 651 mmHg 75%
    23:00 -2°C° 0 mm 1 m/S 651 mmHg 72%

    Morgen, 22 Februar, Samstag

    Zeit Temperatur Niederschläge Wind Luftdruck Luftfeuchtigkeit
    00:00 -2°C° 0 mm 1 m/S 651 mmHg 69%
    01:00 -2°C° 0 mm 1 m/S 652 mmHg 67%
    02:00 -2°C° 0 mm 1 m/S 651 mmHg 64%
    03:00 -2°C° 0 mm 1 m/S 651 mmHg 61%
    04:00 -4°C° 0 mm 2 m/S 651 mmHg 58%
    05:00 -3°C° 0 mm 2 m/S 651 mmHg 56%
    06:00 -3°C° 0 mm 2 m/S 651 mmHg 54%
    07:00 -3°C° 0 mm 2 m/S 651 mmHg 53%
    08:00 +1°C° 0 mm 1 m/S 652 mmHg 53%
    09:00 +3°C° 0 mm 1 m/S 652 mmHg 53%
    10:00 +4°C° 0 mm 1 m/S 653 mmHg 52%
    11:00 +6°C° 0 mm 1 m/S 653 mmHg 52%
    12:00 +7°C° 0 mm 1 m/S 653 mmHg 51%
    13:00 +9°C° 0 mm 1 m/S 653 mmHg 51%
    14:00 +8°C° 0 mm 1 m/S 653 mmHg 55%
    15:00 +8°C° 0 mm 1 m/S 653 mmHg 60%
    16:00 +8°C° 0 mm 1 m/S 652 mmHg 64%
    17:00 +7°C° 0 mm 1 m/S 652 mmHg 67%
    18:00 +5°C° 0 mm 1 m/S 652 mmHg 69%
    19:00 +3°C° 0 mm 2 m/S 652 mmHg 71%
    20:00 +2°C° 0 mm 2 m/S 652 mmHg 71%
    21:00 +2°C° 0 mm 2 m/S 652 mmHg 71%
    22:00 +2°C° 0 mm 2 m/S 652 mmHg 71%
    23:00 +2°C° 0 mm 2 m/S 653 mmHg 71%

    übermorgen, 23 Februar, Sonntag

    Zeit Temperatur Niederschläge Wind Luftdruck Luftfeuchtigkeit
    00:00 +2°C° 0 mm 2 m/S 653 mmHg 72%
    01:00 +2°C° 0 mm 1 m/S 653 mmHg 72%
    02:00 +2°C° 0.1 mm 1 m/S 652 mmHg 73%
    03:00 +2°C° 0.1 mm 1 m/S 652 mmHg 75%
    04:00 +2°C° 0.1 mm 1 m/S 652 mmHg 76%
    05:00 +2°C° 0.1 mm 1 m/S 652 mmHg 77%
    06:00 +2°C° 0.1 mm 2 m/S 652 mmHg 78%
    07:00 +2°C° 0.1 mm 2 m/S 652 mmHg 80%
    08:00 +2°C° 0 mm 2 m/S 651 mmHg 78%
    09:00 +3°C° 0 mm 2 m/S 651 mmHg 76%
    10:00 +4°C° 0 mm 2 m/S 651 mmHg 74%
    11:00 +5°C° 0 mm 2 m/S 651 mmHg 74%
    12:00 +5°C° 0 mm 2 m/S 651 mmHg 73%
    13:00 +6°C° 0 mm 2 m/S 651 mmHg 72%
    14:00 +6°C° 0 mm 2 m/S 650 mmHg 74%
    15:00 +6°C° 0 mm 2 m/S 650 mmHg 76%
    16:00 +6°C° 0 mm 2 m/S 649 mmHg 78%
    17:00 +6°C° 0 mm 2 m/S 649 mmHg 79%
    18:00 +5°C° 0 mm 3 m/S 649 mmHg 80%
    19:00 +4°C° 0 mm 3 m/S 650 mmHg 81%
    20:00 +4°C° 0 mm 3 m/S 649 mmHg 82%
    21:00 +4°C° 0 mm 3 m/S 649 mmHg 83%
    22:00 +4°C° 0 mm 3 m/S 649 mmHg 83%
    23:00 +4°C° 0.1 mm 3 m/S 649 mmHg 84%

    24 Februar, Montag

    Zeit Temperatur Niederschläge Wind Luftdruck Luftfeuchtigkeit
    00:00 +4°C° 0.1 mm 3 m/S 650 mmHg 85%
    01:00 +4°C° 0.1 mm 3 m/S 650 mmHg 86%
    02:00 +3°C° 1 mm 3 m/S 650 mmHg 88%
    03:00 +3°C° 1 mm 3 m/S 650 mmHg 90%
    04:00 +4°C° 1 mm 2 m/S 650 mmHg 92%
    05:00 +4°C° 0.5 mm 2 m/S 650 mmHg 93%
    06:00 +4°C° 0.5 mm 2 m/S 650 mmHg 94%
    07:00 +4°C° 0.5 mm 2 m/S 650 mmHg 94%
    08:00 +4°C° 0.2 mm 2 m/S 650 mmHg 94%
    09:00 +5°C° 0.2 mm 1 m/S 650 mmHg 93%
    10:00 +5°C° 0.2 mm 1 m/S 650 mmHg 92%
    11:00 +6°C° 0 mm 1 m/S 650 mmHg 88%
    12:00 +7°C° 0 mm 1 m/S 650 mmHg 84%
    13:00 +8°C° 0 mm 1 m/S 650 mmHg 79%
    14:00 +8°C° 0 mm 1 m/S 650 mmHg 78%
    15:00 +8°C° 0 mm 1 m/S 649 mmHg 77%
    16:00 +9°C° 0 mm 1 m/S 648 mmHg 76%
    17:00 +7°C° 0 mm 1 m/S 648 mmHg 80%
    18:00 +6°C° 0 mm 1 m/S 647 mmHg 84%
    19:00 +4°C° 0 mm 2 m/S 646 mmHg 87%
    20:00 +3°C° 0 mm 2 m/S 646 mmHg 86%
    21:00 +3°C° 0 mm 2 m/S 646 mmHg 84%
    22:00 +3°C° 0 mm 2 m/S 646 mmHg 83%
    23:00 +3°C° 0 mm 2 m/S 645 mmHg 83%

    25 Februar, Dienstag

    Zeit Temperatur Niederschläge Wind Luftdruck Luftfeuchtigkeit
    00:00 +2°C° 0 mm 2 m/S 645 mmHg 83%
    01:00 +2°C° 0 mm 2 m/S 645 mmHg 83%
    02:00 +2°C° 0 mm 2 m/S 644 mmHg 83%
    03:00 +2°C° 0 mm 2 m/S 644 mmHg 83%
    04:00 +2°C° 0 mm 2 m/S 643 mmHg 83%
    05:00 +1°C° 0 mm 2 m/S 643 mmHg 83%
    06:00 +1°C° 0 mm 2 m/S 642 mmHg 83%
    07:00 +1°C° 0 mm 2 m/S 642 mmHg 82%
    08:00 +2°C° 0 mm 2 m/S 642 mmHg 78%
    09:00 +2°C° 0 mm 3 m/S 642 mmHg 74%
    10:00 +4°C° 0 mm 3 m/S 642 mmHg 69%
    11:00 +4°C° 0 mm 3 m/S 642 mmHg 68%
    12:00 +4°C° 0 mm 4 m/S 642 mmHg 67%
    13:00 +3°C° 0 mm 5 m/S 642 mmHg 66%
    14:00 +3°C° 0.3 mm 4 m/S 641 mmHg 73%
    15:00 +3°C° 0.3 mm 3 m/S 640 mmHg 80%
    16:00 +2°C° 0.3 mm 3 m/S 639 mmHg 87%
    17:00 +1°C° 0.4 mm 3 m/S 639 mmHg 89%
    18:00 +1°C° 0.4 mm 3 m/S 639 mmHg 91%
    19:00 +1°C° 0.4 mm 3 m/S 639 mmHg 92%
    20:00 0°C° 1.2 mm 3 m/S 639 mmHg 93%
    21:00 -1°C° 1.2 mm 4 m/S 638 mmHg 94%
    22:00 -2°C° 1.2 mm 4 m/S 638 mmHg 94%
    23:00 -2°C° 1.7 mm 4 m/S 638 mmHg 93%

    26 Februar, Mittwoch

    Zeit Temperatur Niederschläge Wind Luftdruck Luftfeuchtigkeit
    00:00 -2°C° 1.7 mm 3 m/S 637 mmHg 93%
    01:00 -2°C° 1.7 mm 3 m/S 637 mmHg 92%
    02:00 -4°C° 0.5 mm 3 m/S 636 mmHg 90%
    03:00 -4°C° 0.5 mm 3 m/S 636 mmHg 89%
    04:00 -4°C° 0.5 mm 4 m/S 635 mmHg 87%
    05:00 -5°C° 0.3 mm 4 m/S 635 mmHg 88%
    06:00 -5°C° 0.3 mm 4 m/S 635 mmHg 89%
    07:00 -6°C° 0.3 mm 5 m/S 635 mmHg 90%
    08:00 -6°C° 0.7 mm 5 m/S 635 mmHg 89%
    09:00 -6°C° 0.7 mm 5 m/S 635 mmHg 88%
    10:00 -6°C° 0.7 mm 5 m/S 635 mmHg 87%
    11:00 -7°C° 2.2 mm 5 m/S 636 mmHg 87%
    12:00 -7°C° 2.2 mm 5 m/S 636 mmHg 88%
    13:00 -8°C° 2.2 mm 4 m/S 636 mmHg 88%
    14:00 -8°C° 1.2 mm 5 m/S 637 mmHg 87%
    15:00 -8°C° 1.2 mm 5 m/S 637 mmHg 87%
    16:00 -9°C° 1.2 mm 6 m/S 638 mmHg 86%
    17:00 -10°C° 0.6 mm 5 m/S 638 mmHg 87%
    18:00 -9°C° 0.6 mm 4 m/S 639 mmHg 89%
    19:00 -9°C° 0.6 mm 4 m/S 639 mmHg 90%
    20:00 -8°C° 0.5 mm 3 m/S 639 mmHg 92%
    21:00 -9°C° 0.5 mm 3 m/S 639 mmHg 93%
    22:00 -9°C° 0.5 mm 3 m/S 640 mmHg 95%
    23:00 -8°C° 1 mm 3 m/S 640 mmHg 94%
    Mehr zeigen